Regional Weather Roundup
Issued by NWS

Home | Current Version | Previous Version | Text Only | Print | Product List | Glossary Off
Versions: 1 2 3 4 5 6 7 8 9 10 11 12 13 14 15 16 17 18 19 20 21 22 23 24 25 26 27 28 29 30 31 32 33 34 35 36 37 38 39 40 41 42 43 44 45 46 47 48 49 50

000
ASUS43 KLSX 250810
RWRMO

WEATHER SUMMARY FOR MISSOURI
NATIONAL WEATHER SERVICE SPRINGFIELD MO
300 AM CDT WED MAY 25 2016

NOTE: "FAIR" INDICATES FEW OR NO CLOUDS BELOW 12,000 FEET WITH NO
       SIGNIFICANT WEATHER AND/OR OBSTRUCTIONS TO VISIBILITY.
       CURRENT SKY AND/OR WEATHER CONDITIONS ARE NOT AVAILABLE FOR
       CHILLICOTHE AND FARMINGTON.

MOZ001>031-035>038-043-044-053-054-250900-
...NORTHERN AND WESTERN MISSOURI...

CITY           SKY/WX    TMP DP  RH WIND       PRES   REMARKS
KANSAS CTY INT DRIZZLE   68  61  78 W14G22    29.93R
KANSAS C DTWN  LGT RAIN  69  64  84 SW10      29.94R
LEE`S SUMMIT   LGT RAIN  67  63  87 W12       29.95R
ST JOSEPH      CLOUDY    67  61  81 W6        29.90R
CHILLICOTHE      N/A     67  63  87 S7        29.89F
KIRKSVILLE     MOCLDY    63  62  97 S8        29.92F

$$
MOZ066>068-077>081-088>096-101>105-250900-
...SOUTHWEST MISSOURI...

CITY           SKY/WX    TMP DP  RH WIND       PRES   REMARKS
SPRINGFIELD    MOCLDY    65  62  90 SE10      29.95F
JOPLIN         CLOUDY    73  66  78 S13G21    29.87F

$$
MOZ032>034-039>042-045>050-055>058-069>072-250900-
...CENTRAL MISSOURI...

CITY           SKY/WX    TMP DP  RH WIND       PRES   REMARKS
COLUMBIA       CLOUDY    62  61  96 SE7       29.94F
JEFFERSON CITY CLOUDY    61  60  97 SE6       29.95R
ROLLA          CLEAR     60  59  96 S8        29.96R
SEDALIA        PTCLDY    62  60  93 SE5       29.93F
WHITEMAN AFB   MOCLDY    61  61 100 S5        29.90F
WARRENSBURG    CLOUDY    61  59  94 CALM      29.92S

$$
MOZ051-052-059>065-250900-
...EAST CENTRAL MISSOURI...

CITY           SKY/WX    TMP DP  RH WIND       PRES   REMARKS
ST LOUIS INTL  CLOUDY    67  61  81 SE8       29.98F
SPIRIT OF STL  CLOUDY    61  61 100 E5        29.96F
ST CHARLES     CLOUDY    62  60  93 E6        29.97F

$$
MOZ072>076-082>087-097>100-106>115-250900-
...SOUTH CENTRAL AND SOUTHEAST MISSOURI...

CITY           SKY/WX    TMP DP  RH WIND       PRES   REMARKS
CAPE GIRARDEAU CLOUDY    62  61  96 SW3       30.02S
FARMINGTON     PTCLDY    62  60  93 SE5       30.00F
POPLAR BLUFF   CLOUDY    62  61  96 E3        30.00F
WEST PLAINS    CLOUDY    61  58  90 S5        30.00R

$$




USA.gov is the U.S. government's official web portal to all federal, state and local government web resources and services.